Hourly Data Report for October 13, 2014

All times are specified in Local Standard Time (LST). Add 1 hour to adjust for Daylight Saving Time where and when it is observed.

IQALUIT CLIMATE
NUNAVUT

63°44'50.000" N
68°32'40.000" W
33.50 m
2402592
71321
XFB

Download Data

Hourly Data (October 2014)
Hourly Data Report for October 13, 2014
Temp Definition
°C
Dew Point Temp Definition
°C
Rel Hum Definition
%
Wind Dir Definition
10's deg

Wind Spd Definition
km/h
Visibility Definition
km
Stn Press Definition
kPa
Hmdx Definition


Wind Chill Definition


Weather Definition


TIME
00:00 0.4 -1.0 90 14 22   100.30     LegendNANA
01:00 0.4 -1.2 89 14 20   100.31     LegendNANA
02:00 0.4 -1.0 90 15 25   100.30     LegendNANA
03:00 0.4 -1.3 89 14 24   100.31     LegendNANA
04:00 0.2 -1.0 92 14 22   100.33     LegendNANA
05:00 0.2 -0.9 92 14 25   100.35     LegendNANA
06:00 0.2 -0.7 93 14 28   100.37     LegendNANA
07:00 0.4 -0.7 92 14 28   100.37     LegendNANA
08:00 0.6 -0.5 92 14 29   100.36     LegendNANA
09:00 0.7 -0.4 92 14 26   100.37     LegendNANA
10:00 0.8 -0.4 92 15 27   100.38     LegendNANA
11:00 1.0 -0.5 90 15 27   100.37     LegendNANA
12:00 1.1 -0.7 88 14 22   100.38     LegendNANA
13:00 1.6 -0.9 84 14 19   100.38     LegendNANA
14:00 1.3 -0.7 87 14 16   100.39     LegendNANA
15:00 1.3 -0.9 86 15 19   100.38     LegendNANA
16:00 0.4 -0.6 93 15 14   100.42     LegendNANA
17:00 -0.1 -0.7 96 14 10   100.43   -3 LegendNANA
18:00 -0.5 -1.2 95 13 9   100.44   -4 LegendNANA
19:00 -0.9 -2.0 92 14 5   100.44   -3 LegendNANA
20:00 -1.5 -2.5 93 15 3   100.42   -3 LegendNANA
21:00 -2.6 -4.0 90 1 2   100.40   -3 LegendNANA
22:00 -1.2 -3.1 87 1 6   100.36   -3 LegendNANA
23:00 -1.0 -2.6 88 1 5   100.33   -3 LegendNANA

Notes on Data Quality.

Legend

  • E = Estimated
  • M = Missing
  • NA = Not Available
  • ‡ = Partner data that is not subject to review by the National Climate Archives
Date modified: